Regional Weather Roundup
Issued by NWS Mt. Holly, NJ

Home | Current Version | Previous Version | Text Only | Print | Product List | Glossary On
Versions: 1 2 3 4 5 6 7 8 9 10 11 12 13 14 15 16 17 18 19 20 21 22 23 24 25 26 27 28 29 30 31 32 33 34 35 36 37 38 39 40 41 42 43 44 45 46 47 48 49 50
000
ASUS41 KPHI 242212
RWRPHI

REGIONAL WEATHER ROUNDUP
NATIONAL WEATHER SERVICE MOUNT HOLLY NJ
500 PM EST FRI NOV 24 2017

NOTE:  "FAIR" INDICATES FEW OR NO CLOUDS BELOW 12,000 FEET WITH NO
SIGNIFICANT WEATHER AND/OR OBSTRUCTIONS TO VISIBILITY.

 * = STATION DOES NOT REPORT PRECIPITATION (E.G. RAIN, SNOW, ETC.)
        OR FOG.

NJZ015>026-242300-
SOUTHERN NEW JERSEY

CITY           SKY/WX    TMP DP  RH WIND       PRES   REMARKS
POMONA         CLEAR     47  34  60 S6        30.00R
WILDWOOD*      CLEAR     43  29  57 SE5       30.01F
MILLVILLE      CLEAR     44  30  57 CALM      30.00R
WRIGHTSTOWN    CLEAR     44  26  48 S5        29.96R
MOUNT HOLLY    CLEAR     45  27  49 CALM      29.98S
TRENTON        CLEAR     46  23  40 S5        29.97R

$$
NJZ001>014-242300-
NORTHERN NEW JERSEY

CITY           SKY/WX    TMP DP  RH WIND       PRES   REMARKS
SUSSEX         CLEAR     42  24  49 CALM      29.93S
ANDOVER*         N/A     40  24  53 CALM      29.93S
MORRISTOWN     CLEAR     46  21  36 S3        29.96S
NEWARK         PTCLDY    49  26  41 S8        29.96S
TETERBORO      CLEAR     48  24  39 S8        29.95S
CALDWELL       CLEAR     48  22  35 SW3       29.96R
SOMERVILLE     CLEAR     44  23  43 CALM      29.94S
ALLAIRE*       CLEAR     44  28  53 S5        30.00
TOMS RIVER*    CLEAR     42  32  67 S3        30.00R

$$
PAZ043-044-047-054-055-060>062-066>071-242300-
EASTERN PENNSYLVANIA

CITY           SKY/WX    TMP DP  RH WIND       PRES   REMARKS
PHILADELPHIA   CLEAR     49  27  42 S5        29.98S
NORTH PHILA    CLEAR     49  24  37 S5        29.99S
BLUE BELL*     CLEAR     45  23  42 S3        29.98S
DOYLESTOWN     CLEAR     46  23  40 S5        29.95S
QUAKERTOWN*    CLEAR     45  23  42 CALM      29.96R
PERKASIE*      FAIR      41  23  48 CALM      29.96R
POTTSTOWN      CLEAR     47  21  35 S3        29.97S
LANCASTER      CLEAR     45  29  53 SE8       29.95R
COATESVILLE    CLEAR     45  23  42 VRB3      29.97R
READING        CLEAR     47  25  42 S5        29.94S
ALLENTOWN      CLEAR     47  20  34 S5        29.94S
MOUNT POCONO   CLEAR     38  20  48 S7        29.88S WCI  33
HAZLETON       CLEAR     43  18  36 SE3       29.92S
LEHIGHTON      FAIR      41  23  48 CALM      29.94S
WILKES BARRE   CLEAR     47  22  37 CALM      29.89R

$$
DEZALL-MDZ008-012-015-019-020-242300-
DELAWARE AND EASTERN MARYLAND

CITY           SKY/WX    TMP DP  RH WIND       PRES   REMARKS
WILMINGTON     CLEAR     47  33  58 S12       29.99R
DOVER          CLEAR     44  37  78 SE6       29.99S
GEORGETOWN     CLEAR     44  31  60 SE7       30.00F
EASTON         CLEAR     46  32  57 CALM      30.03S
ABERDEEN       CLEAR     44  28  51 S3        29.98F
PATUXENT       CLEAR     46  33  60 S7        29.99F
OCEAN CITY     CLEAR     46  37  71 CALM      30.02S
WALLOPS ISLAND CLEAR     45  37  73 CALM      30.01F
CAMBRIDGE      CLEAR     46  32  57 CALM      30.00S
SALISBURY      CLEAR     46  33  60 SE6       30.00S

$$
PAZ001-021-NYZ056-072-MDZ011-DCZ001-242300-
OTHER NEARBY LOCATIONS

CITY           SKY/WX    TMP DP  RH WIND       PRES   REMARKS
HARRISBURG     CLEAR     44  28  53 CALM      29.93S
STATE COLLEGE  CLEAR     46  19  34 S6        29.86F
WILLIAMSPORT   CLEAR     46  23  40 E6        29.87F
BINGHAMTON     CLEAR     44  20  38 S7        29.82S
NEW YORK CITY  CLEAR     47  24  40 VRB3      29.98S
BALTIMORE      PTCLDY    48  32  53 SE8       29.96F
WASHINGTON DC  CLEAR     49  30  48 S9        29.97F

$$



USA.gov is the U.S. government's official web portal to all federal, state and local government web resources and services.